GEFSSGP_prec_meanprecacc_168.txt.gz
Total_Precipitation_Accumulation
1.17 1.31 1.90 2.55 2.84 2.23 1.78 1.38 1.01 0.90 0.83 0.59 0.44 0.43 0.62 0.91 1.24 1.52 1.28 1.06 0.76 0.61 0.58 0.87 1.24 1.12 1.00 0.94 0.99 1.11 1.16 1.25 1.08 1.00 0.86 0.73 0.63 0.62 0.62 0.54 0.50 0.54 0.48 0.43 0.46 0.57 0.57 0.60 0.62
1.08 1.90 2.66 3.26 2.74 1.89 1.72 1.38 1.17 0.89 0.60 0.47 0.35 0.36 0.47 0.45 0.39 0.69 1.31 1.33 0.79 0.61 0.61 0.80 1.24 1.14 1.10 1.09 1.13 1.14 1.18 1.26 1.12 0.98 0.83 0.71 0.67 0.68 0.69 0.78 0.81 0.68 0.51 0.47 0.46 0.58 0.61 0.58 0.62
1.32 2.50 3.46 3.22 2.18 1.74 1.81 1.40 1.00 0.66 0.45 0.43 0.41 0.38 0.49 0.58 0.54 0.92 1.38 1.10 0.77 0.64 0.70 0.98 1.26 1.12 1.06 1.11 1.20 1.18 1.23 1.22 1.11 0.95 0.76 0.70 0.73 0.83 0.92 0.96 0.87 0.68 0.56 0.52 0.54 0.60 0.64 0.58 0.54
1.74 2.87 3.00 2.37 2.00 1.65 1.43 1.13 0.78 0.71 0.54 0.38 0.37 0.47 0.45 0.55 0.60 0.89 0.99 0.83 0.76 0.73 0.65 0.85 1.12 1.08 1.06 1.11 1.15 1.11 1.12 1.18 1.15 0.94 0.77 0.73 0.73 0.75 0.83 0.91 0.82 0.66 0.58 0.55 0.61 0.65 0.65 0.61 0.57
2.19 2.69 2.58 2.16 1.93 1.54 1.11 0.87 0.70 0.72 0.68 0.46 0.35 0.59 0.74 0.83 0.77 0.85 0.93 0.91 0.73 0.70 0.64 0.70 0.95 0.95 0.92 1.02 1.12 1.12 1.14 1.16 1.11 0.90 0.80 0.81 0.78 0.72 0.79 0.82 0.76 0.63 0.57 0.57 0.64 0.67 0.70 0.65 0.61
2.43 2.40 2.52 2.40 2.15 1.71 1.29 0.94 0.71 0.66 0.61 0.47 0.44 0.62 0.91 1.16 1.08 1.06 0.91 0.92 0.82 0.74 0.64 0.58 0.81 0.88 0.84 0.89 0.97 1.03 1.06 1.10 1.05 0.85 0.78 0.76 0.76 0.73 0.73 0.76 0.76 0.67 0.68 0.68 0.68 0.66 0.69 0.71 0.65
2.33 2.22 2.17 2.03 2.18 2.17 1.57 0.96 0.83 0.71 0.67 0.54 0.47 0.70 0.93 1.27 1.07 1.06 0.99 0.94 0.95 0.82 0.74 0.64 0.69 0.75 0.86 0.94 0.96 0.98 1.00 1.02 1.04 0.91 0.83 0.80 0.73 0.64 0.62 0.64 0.66 0.70 0.77 0.74 0.68 0.64 0.62 0.66 0.66
1.90 1.84 1.68 1.75 2.02 2.13 1.40 0.80 0.64 0.68 0.63 0.39 0.45 0.66 0.87 1.00 0.97 1.04 1.01 0.94 0.91 0.86 0.79 0.68 0.71 0.78 0.74 0.81 1.00 1.06 1.08 1.10 1.13 0.99 0.87 0.83 0.69 0.60 0.60 0.54 0.59 0.67 0.80 0.87 0.81 0.73 0.68 0.68 0.71
1.75 1.86 1.86 2.02 1.89 1.69 1.09 0.86 0.70 0.61 0.58 0.45 0.41 0.47 0.62 0.67 0.81 0.97 1.02 0.97 0.90 0.82 0.74 0.67 0.70 0.81 0.85 0.80 0.90 1.17 1.20 1.23 1.19 1.05 0.95 0.84 0.65 0.57 0.59 0.56 0.72 0.74 0.78 0.87 0.90 0.90 0.83 0.78 0.72
1.81 1.92 1.95 1.72 1.29 1.14 0.91 0.83 0.75 0.63 0.65 0.57 0.48 0.55 0.67 0.73 0.80 0.88 0.88 0.84 0.82 0.83 0.75 0.64 0.63 0.66 0.73 0.77 0.90 1.05 1.03 1.04 1.02 1.16 1.07 0.94 0.89 0.77 0.50 0.56 0.77 0.91 0.94 0.91 0.88 0.97 0.86 0.70 0.54
1.44 1.49 1.25 1.26 0.97 0.82 0.80 0.74 0.67 0.73 0.78 0.53 0.54 0.62 0.70 0.77 0.80 0.85 0.86 0.77 0.76 0.76 0.72 0.60 0.52 0.50 0.53 0.66 0.82 0.92 1.02 1.12 1.08 1.04 1.04 1.01 0.89 0.71 0.58 0.63 0.65 0.70 0.77 0.70 0.74 0.73 0.59 0.52 0.54
1.24 1.06 0.87 0.95 0.78 0.81 0.81 0.66 0.61 0.64 0.68 0.49 0.47 0.55 0.69 0.72 0.75 0.77 0.75 0.73 0.66 0.66 0.69 0.61 0.46 0.42 0.40 0.47 0.56 0.67 0.80 0.92 0.96 0.81 0.77 0.85 0.87 0.76 0.63 0.64 0.63 0.63 0.67 0.76 0.79 0.78 0.68 0.64 0.62
1.36 1.12 0.89 0.83 0.81 0.76 0.73 0.67 0.60 0.55 0.52 0.51 0.53 0.62 0.66 0.73 0.77 0.77 0.65 0.62 0.57 0.60 0.64 0.61 0.49 0.46 0.41 0.43 0.43 0.44 0.63 0.81 0.91 0.93 0.80 0.77 0.79 0.77 0.71 0.60 0.62 0.57 0.60 0.67 0.71 0.75 0.76 0.80 0.77
1.17 1.04 0.97 0.92 0.83 0.69 0.72 0.70 0.59 0.64 0.56 0.54 0.53 0.56 0.60 0.69 0.71 0.66 0.59 0.54 0.50 0.51 0.60 0.61 0.59 0.59 0.51 0.43 0.42 0.43 0.52 0.64 0.72 0.87 0.88 0.83 0.75 0.71 0.74 0.69 0.70 0.71 0.69 0.69 0.69 0.68 0.79 0.84 0.83
0.90 1.06 1.06 0.94 0.85 0.76 0.73 0.84 0.69 0.71 0.68 0.67 0.60 0.52 0.55 0.60 0.60 0.56 0.51 0.48 0.48 0.48 0.51 0.51 0.53 0.60 0.60 0.58 0.54 0.53 0.61 0.63 0.70 0.76 0.77 0.84 0.75 0.68 0.74 0.77 0.78 0.79 0.80 0.79 0.80 0.81 0.88 0.85 0.88
0.97 1.20 1.38 1.09 0.93 0.89 0.92 1.00 0.80 0.81 0.78 0.76 0.67 0.59 0.53 0.55 0.56 0.55 0.51 0.44 0.44 0.43 0.43 0.48 0.46 0.54 0.63 0.68 0.70 0.73 0.75 0.78 0.84 0.81 0.78 0.78 0.73 0.71 0.80 0.82 0.86 0.92 0.84 0.81 0.88 0.93 0.98 0.95 0.98
1.21 1.19 1.17 1.11 0.89 0.85 0.90 0.89 0.78 0.85 0.80 0.70 0.63 0.57 0.48 0.49 0.53 0.52 0.49 0.42 0.39 0.40 0.43 0.48 0.49 0.55 0.62 0.68 0.77 0.86 0.93 1.01 1.14 1.10 1.06 1.00 0.88 0.89 0.96 1.01 1.04 1.06 1.08 1.00 0.90 0.92 0.99 1.09 1.12
1.16 0.87 0.79 0.84 0.84 0.75 0.79 0.74 0.72 0.80 0.69 0.64 0.55 0.49 0.40 0.42 0.47 0.48 0.49 0.45 0.42 0.41 0.43 0.47 0.54 0.62 0.73 0.88 1.09 1.30 1.37 1.55 1.76 1.70 1.55 1.36 1.20 1.17 1.27 1.25 1.21 1.27 1.36 1.38 1.18 1.22 1.18 1.13 1.20
0.72 0.64 0.64 0.62 0.60 0.63 0.60 0.59 0.61 0.60 0.56 0.49 0.42 0.40 0.37 0.32 0.36 0.40 0.42 0.41 0.35 0.32 0.36 0.41 0.46 0.56 0.68 0.90 1.21 1.63 1.84 1.98 2.00 2.01 1.91 1.70 1.48 1.50 1.67 1.64 1.62 1.63 1.61 1.57 1.51 1.64 1.58 1.32 1.23
0.59 0.60 0.59 0.57 0.54 0.53 0.46 0.43 0.46 0.44 0.36 0.32 0.30 0.30 0.30 0.29 0.30 0.27 0.30 0.31 0.26 0.22 0.22 0.31 0.37 0.46 0.61 0.89 1.20 1.53 1.89 1.97 2.00 2.01 1.97 1.85 1.72 1.73 1.77 1.97 2.08 2.05 2.15 2.12 1.94 2.07 2.07 1.71 1.47
0.54 0.58 0.55 0.57 0.58 0.52 0.44 0.42 0.45 0.39 0.30 0.26 0.24 0.25 0.27 0.25 0.25 0.25 0.24 0.24 0.22 0.19 0.16 0.21 0.27 0.41 0.70 1.05 1.36 1.54 1.84 1.96 2.02 1.99 2.00 2.02 1.98 1.88 1.90 2.01 2.18 2.21 2.27 2.36 2.43 2.37 2.46 2.24 1.86
0.56 0.41 0.36 0.39 0.52 0.56 0.45 0.50 0.44 0.37 0.39 0.34 0.28 0.27 0.30 0.30 0.25 0.24 0.25 0.21 0.17 0.16 0.15 0.17 0.24 0.44 0.77 1.12 1.37 1.60 1.95 2.06 2.04 2.07 2.08 2.09 2.11 2.07 2.14 2.16 2.27 2.30 2.32 2.41 2.51 2.47 2.60 2.64 2.27
0.41 0.32 0.31 0.32 0.40 0.45 0.34 0.36 0.38 0.36 0.42 0.44 0.36 0.32 0.34 0.31 0.24 0.22 0.21 0.19 0.17 0.17 0.18 0.22 0.36 0.56 0.82 1.03 1.28 1.63 1.88 1.99 2.15 2.10 2.08 2.10 2.16 2.18 2.22 2.28 2.44 2.43 2.41 2.38 2.59 2.64 2.72 2.65 2.56
0.27 0.34 0.36 0.34 0.38 0.42 0.24 0.30 0.41 0.36 0.33 0.35 0.34 0.29 0.30 0.29 0.25 0.25 0.23 0.21 0.21 0.24 0.29 0.36 0.51 0.66 0.89 1.07 1.27 1.45 1.69 1.84 1.98 2.08 2.03 2.04 2.12 2.22 2.12 2.03 2.17 2.24 2.27 2.26 2.44 2.61 2.74 2.73 2.75
0.26 0.46 0.61 0.56 0.56 0.44 0.23 0.32 0.45 0.33 0.26 0.27 0.28 0.27 0.28 0.30 0.31 0.36 0.36 0.38 0.44 0.48 0.51 0.59 0.68 0.79 0.91 1.01 1.12 1.18 1.33 1.50 1.55 1.72 1.81 1.95 1.97 2.04 2.09 1.97 1.95 1.98 1.94 1.98 2.10 2.16 2.24 2.39 2.54
0.22 0.36 0.58 0.60 0.50 0.42 0.34 0.50 0.51 0.35 0.28 0.28 0.28 0.32 0.35 0.42 0.48 0.57 0.65 0.73 0.79 0.78 0.77 0.84 0.90 0.88 0.87 0.92 0.98 1.01 1.07 1.15 1.22 1.27 1.32 1.51 1.68 1.73 1.82 1.81 1.76 1.80 1.84 1.85 1.93 1.94 1.95 1.97 2.05
0.19 0.25 0.33 0.42 0.34 0.35 0.36 0.52 0.51 0.38 0.36 0.36 0.36 0.41 0.50 0.67 0.76 0.86 0.94 0.95 0.95 0.93 0.88 0.89 0.92 0.90 0.88 0.88 0.87 0.83 0.82 0.89 0.99 1.01 1.09 1.16 1.26 1.28 1.35 1.45 1.52 1.61 1.66 1.72 1.86 1.93 1.92 1.87 1.85
0.16 0.25 0.37 0.57 0.64 0.56 0.48 0.60 0.62 0.52 0.44 0.41 0.45 0.55 0.73 0.99 1.12 1.24 1.32 1.22 1.13 1.12 1.16 1.05 0.96 0.89 0.85 0.85 0.84 0.78 0.74 0.79 0.83 0.83 0.90 0.90 0.91 0.94 1.00 1.11 1.28 1.50 1.63 1.67 1.74 1.79 1.87 1.90 1.86
0.19 0.29 0.41 0.62 0.69 0.84 0.92 1.00 0.78 0.65 0.63 0.70 0.80 0.89 1.10 1.37 1.52 1.61 1.61 1.50 1.29 1.15 1.14 1.07 0.96 0.84 0.74 0.73 0.78 0.77 0.72 0.74 0.78 0.78 0.73 0.67 0.70 0.78 0.90 0.95 1.09 1.25 1.43 1.61 1.76 1.78 1.78 1.81 1.79
0.30 0.45 0.63 0.99 0.96 0.86 1.04 1.20 0.91 0.74 0.76 0.79 0.85 0.98 1.20 1.33 1.39 1.43 1.37 1.35 1.23 1.14 1.05 0.99 0.88 0.74 0.68 0.72 0.74 0.76 0.68 0.63 0.66 0.67 0.69 0.59 0.56 0.62 0.71 0.85 1.05 1.16 1.25 1.30 1.38 1.46 1.51 1.54 1.58

GEFSSGP_prec_meanprecacc_174.txt.gz
Total_Precipitation_Accumulation
1.19 1.31 1.91 2.56 2.86 2.25 1.80 1.39 1.05 0.97 0.90 0.63 0.51 0.52 0.73 1.00 1.32 1.58 1.34 1.13 0.86 0.72 0.72 1.06 1.41 1.26 1.11 1.02 1.06 1.15 1.19 1.28 1.13 1.03 0.90 0.75 0.65 0.64 0.63 0.54 0.51 0.55 0.50 0.45 0.49 0.58 0.60 0.63 0.64
1.09 1.91 2.67 3.27 2.75 1.91 1.74 1.41 1.21 0.95 0.67 0.51 0.40 0.41 0.55 0.51 0.48 0.79 1.40 1.40 0.85 0.67 0.70 0.94 1.40 1.27 1.22 1.20 1.21 1.20 1.22 1.31 1.17 1.02 0.87 0.74 0.70 0.70 0.71 0.79 0.82 0.70 0.53 0.48 0.48 0.59 0.63 0.60 0.65
1.34 2.51 3.47 3.23 2.19 1.75 1.83 1.45 1.07 0.72 0.49 0.47 0.45 0.41 0.54 0.64 0.62 1.01 1.47 1.17 0.84 0.68 0.76 1.10 1.40 1.23 1.17 1.21 1.29 1.25 1.30 1.28 1.16 1.00 0.79 0.73 0.76 0.86 0.94 0.97 0.88 0.69 0.57 0.53 0.54 0.61 0.65 0.60 0.57
1.75 2.88 3.01 2.38 2.01 1.66 1.46 1.20 0.84 0.77 0.58 0.41 0.41 0.50 0.49 0.63 0.71 0.97 1.04 0.89 0.85 0.80 0.73 0.96 1.25 1.20 1.16 1.21 1.24 1.20 1.20 1.24 1.20 0.98 0.80 0.76 0.76 0.78 0.85 0.93 0.85 0.68 0.59 0.55 0.61 0.66 0.67 0.63 0.59
2.21 2.70 2.59 2.17 1.94 1.57 1.16 0.95 0.80 0.80 0.73 0.49 0.39 0.62 0.77 0.92 0.93 0.95 0.99 0.98 0.83 0.77 0.71 0.80 1.07 1.05 1.02 1.10 1.22 1.24 1.23 1.23 1.16 0.95 0.84 0.84 0.81 0.75 0.81 0.83 0.78 0.65 0.58 0.58 0.65 0.68 0.72 0.67 0.63
2.48 2.41 2.52 2.41 2.16 1.74 1.35 1.03 0.82 0.74 0.67 0.51 0.49 0.66 0.96 1.29 1.26 1.19 1.00 1.02 0.93 0.82 0.71 0.69 0.94 0.99 0.93 0.96 1.03 1.09 1.13 1.16 1.11 0.89 0.81 0.79 0.79 0.76 0.76 0.78 0.77 0.68 0.69 0.69 0.68 0.66 0.70 0.72 0.67
2.39 2.24 2.18 2.04 2.20 2.20 1.64 1.03 0.93 0.77 0.72 0.59 0.50 0.75 1.00 1.38 1.18 1.21 1.13 1.05 1.08 0.92 0.79 0.69 0.76 0.82 0.93 1.00 1.02 1.03 1.06 1.09 1.10 0.94 0.85 0.82 0.74 0.66 0.65 0.67 0.69 0.71 0.78 0.75 0.69 0.64 0.63 0.67 0.68
1.98 1.87 1.68 1.77 2.05 2.16 1.45 0.86 0.70 0.73 0.67 0.43 0.47 0.71 0.96 1.11 1.07 1.22 1.20 1.07 1.02 0.94 0.84 0.70 0.74 0.81 0.78 0.85 1.06 1.12 1.15 1.17 1.17 1.01 0.89 0.84 0.70 0.62 0.62 0.56 0.61 0.68 0.81 0.89 0.82 0.74 0.70 0.69 0.73
1.84 1.90 1.88 2.04 1.92 1.74 1.16 0.93 0.77 0.66 0.62 0.50 0.44 0.52 0.76 0.80 0.93 1.14 1.20 1.12 1.00 0.88 0.78 0.69 0.72 0.83 0.87 0.83 0.93 1.21 1.26 1.28 1.22 1.07 0.96 0.85 0.65 0.57 0.60 0.56 0.73 0.76 0.80 0.88 0.91 0.91 0.86 0.80 0.74
1.88 1.97 1.97 1.73 1.32 1.19 0.99 0.89 0.82 0.71 0.72 0.63 0.54 0.60 0.80 0.86 0.93 1.01 1.01 0.93 0.89 0.88 0.77 0.66 0.65 0.67 0.74 0.78 0.90 1.06 1.04 1.05 1.03 1.17 1.07 0.94 0.89 0.77 0.50 0.56 0.78 0.93 0.96 0.93 0.90 1.00 0.88 0.71 0.55
1.48 1.54 1.29 1.29 1.00 0.85 0.86 0.80 0.73 0.80 0.84 0.58 0.58 0.68 0.82 0.89 0.90 0.96 0.94 0.83 0.80 0.80 0.75 0.62 0.54 0.50 0.53 0.66 0.83 0.92 1.03 1.12 1.08 1.04 1.04 1.02 0.89 0.71 0.58 0.63 0.65 0.71 0.78 0.71 0.75 0.74 0.59 0.52 0.54
1.26 1.10 0.91 0.99 0.82 0.84 0.85 0.71 0.65 0.68 0.73 0.53 0.50 0.61 0.77 0.80 0.84 0.87 0.82 0.79 0.70 0.69 0.71 0.64 0.48 0.42 0.40 0.47 0.56 0.67 0.80 0.92 0.96 0.82 0.77 0.85 0.87 0.76 0.63 0.64 0.63 0.63 0.68 0.76 0.79 0.78 0.69 0.64 0.62
1.39 1.15 0.94 0.89 0.85 0.79 0.76 0.71 0.64 0.62 0.58 0.57 0.58 0.69 0.74 0.80 0.84 0.85 0.75 0.71 0.65 0.66 0.68 0.63 0.51 0.47 0.41 0.43 0.44 0.45 0.64 0.81 0.91 0.93 0.80 0.77 0.79 0.77 0.71 0.60 0.62 0.57 0.60 0.67 0.71 0.75 0.76 0.81 0.77
1.19 1.06 1.01 0.98 0.89 0.73 0.75 0.74 0.63 0.71 0.64 0.64 0.60 0.64 0.70 0.77 0.77 0.71 0.64 0.58 0.53 0.53 0.64 0.63 0.61 0.60 0.52 0.43 0.43 0.44 0.52 0.64 0.72 0.87 0.88 0.83 0.75 0.71 0.74 0.69 0.70 0.71 0.69 0.69 0.69 0.69 0.80 0.84 0.83
0.91 1.07 1.09 0.99 0.89 0.80 0.76 0.88 0.73 0.77 0.74 0.75 0.67 0.58 0.63 0.66 0.64 0.60 0.53 0.49 0.49 0.49 0.52 0.53 0.55 0.63 0.61 0.58 0.55 0.53 0.61 0.63 0.70 0.76 0.77 0.84 0.75 0.68 0.74 0.77 0.78 0.79 0.80 0.79 0.81 0.81 0.88 0.86 0.88
0.99 1.22 1.40 1.12 0.96 0.93 0.96 1.03 0.85 0.89 0.84 0.81 0.73 0.65 0.58 0.60 0.60 0.58 0.53 0.44 0.45 0.44 0.44 0.49 0.47 0.56 0.65 0.70 0.72 0.74 0.76 0.79 0.84 0.82 0.78 0.78 0.73 0.71 0.80 0.82 0.86 0.92 0.84 0.81 0.88 0.93 0.99 0.96 0.99
1.23 1.21 1.19 1.13 0.91 0.89 0.96 0.94 0.84 0.94 0.88 0.76 0.67 0.61 0.52 0.52 0.56 0.54 0.50 0.43 0.39 0.40 0.43 0.49 0.51 0.57 0.64 0.69 0.79 0.88 0.94 1.02 1.14 1.10 1.06 1.00 0.88 0.89 0.96 1.01 1.04 1.06 1.08 1.00 0.90 0.92 1.00 1.10 1.13
1.18 0.88 0.81 0.86 0.85 0.79 0.86 0.79 0.76 0.87 0.77 0.70 0.60 0.52 0.44 0.44 0.49 0.50 0.51 0.45 0.43 0.41 0.44 0.49 0.57 0.65 0.75 0.89 1.10 1.30 1.38 1.56 1.76 1.70 1.55 1.36 1.20 1.17 1.27 1.25 1.21 1.27 1.36 1.38 1.18 1.22 1.18 1.14 1.22
0.73 0.65 0.66 0.63 0.61 0.65 0.65 0.64 0.66 0.67 0.64 0.55 0.47 0.43 0.40 0.35 0.38 0.41 0.44 0.42 0.35 0.33 0.37 0.43 0.49 0.59 0.72 0.92 1.22 1.63 1.85 1.98 2.00 2.02 1.91 1.70 1.49 1.50 1.67 1.64 1.62 1.63 1.61 1.57 1.51 1.64 1.59 1.33 1.25
0.61 0.62 0.61 0.58 0.55 0.55 0.49 0.47 0.50 0.49 0.42 0.37 0.36 0.34 0.34 0.31 0.32 0.29 0.31 0.32 0.27 0.23 0.23 0.33 0.40 0.49 0.64 0.92 1.22 1.55 1.91 1.98 2.00 2.01 1.97 1.85 1.72 1.73 1.77 1.98 2.08 2.05 2.15 2.12 1.94 2.07 2.07 1.71 1.48
0.56 0.60 0.57 0.59 0.60 0.54 0.46 0.44 0.47 0.42 0.34 0.30 0.29 0.28 0.30 0.26 0.28 0.27 0.26 0.26 0.24 0.21 0.18 0.24 0.29 0.43 0.73 1.07 1.39 1.58 1.86 1.97 2.03 1.99 2.01 2.02 1.98 1.89 1.90 2.02 2.19 2.21 2.28 2.36 2.43 2.38 2.47 2.25 1.87
0.58 0.42 0.37 0.40 0.54 0.58 0.46 0.52 0.45 0.38 0.40 0.36 0.31 0.31 0.32 0.31 0.27 0.26 0.27 0.24 0.20 0.17 0.16 0.19 0.26 0.45 0.79 1.14 1.39 1.63 1.98 2.08 2.05 2.08 2.08 2.09 2.11 2.07 2.15 2.17 2.28 2.31 2.32 2.41 2.52 2.48 2.61 2.65 2.27
0.44 0.34 0.33 0.34 0.43 0.47 0.35 0.36 0.39 0.37 0.43 0.45 0.37 0.37 0.35 0.31 0.25 0.23 0.22 0.22 0.20 0.18 0.18 0.23 0.37 0.57 0.83 1.04 1.30 1.66 1.91 2.03 2.17 2.10 2.09 2.10 2.16 2.18 2.22 2.28 2.45 2.44 2.41 2.39 2.59 2.64 2.73 2.65 2.56
0.30 0.36 0.38 0.37 0.40 0.43 0.24 0.30 0.41 0.37 0.34 0.36 0.35 0.32 0.31 0.29 0.26 0.26 0.24 0.23 0.23 0.25 0.30 0.37 0.52 0.67 0.89 1.08 1.29 1.48 1.73 1.86 1.99 2.09 2.04 2.04 2.12 2.22 2.12 2.03 2.17 2.24 2.27 2.26 2.45 2.62 2.74 2.73 2.75
0.28 0.48 0.63 0.59 0.58 0.46 0.23 0.32 0.45 0.34 0.27 0.27 0.29 0.28 0.28 0.31 0.33 0.36 0.37 0.40 0.46 0.49 0.52 0.60 0.69 0.80 0.92 1.02 1.14 1.21 1.38 1.53 1.57 1.73 1.82 1.95 1.97 2.04 2.09 1.97 1.96 1.99 1.94 1.99 2.11 2.17 2.24 2.39 2.54
0.24 0.37 0.59 0.62 0.52 0.43 0.34 0.50 0.52 0.35 0.29 0.29 0.29 0.33 0.35 0.43 0.49 0.59 0.66 0.74 0.80 0.79 0.77 0.84 0.90 0.89 0.88 0.93 1.00 1.03 1.10 1.19 1.25 1.29 1.33 1.51 1.68 1.73 1.82 1.81 1.76 1.80 1.84 1.85 1.93 1.94 1.95 1.98 2.05
0.21 0.27 0.34 0.43 0.35 0.35 0.36 0.52 0.51 0.38 0.37 0.36 0.37 0.42 0.50 0.68 0.78 0.87 0.95 0.97 0.96 0.93 0.88 0.89 0.93 0.91 0.89 0.90 0.89 0.85 0.84 0.91 1.01 1.02 1.09 1.17 1.27 1.28 1.35 1.45 1.52 1.61 1.66 1.72 1.86 1.93 1.92 1.87 1.85
0.18 0.28 0.38 0.58 0.65 0.57 0.48 0.60 0.62 0.52 0.44 0.41 0.46 0.56 0.73 1.00 1.13 1.25 1.33 1.24 1.14 1.14 1.17 1.05 0.96 0.90 0.86 0.86 0.86 0.79 0.76 0.81 0.85 0.84 0.91 0.90 0.92 0.94 1.00 1.11 1.28 1.50 1.63 1.67 1.74 1.79 1.87 1.91 1.86
0.20 0.30 0.42 0.64 0.70 0.85 0.93 1.00 0.79 0.66 0.63 0.71 0.81 0.89 1.11 1.38 1.53 1.63 1.63 1.52 1.31 1.17 1.16 1.08 0.97 0.85 0.75 0.74 0.79 0.79 0.74 0.76 0.81 0.80 0.75 0.68 0.72 0.79 0.91 0.95 1.09 1.25 1.43 1.61 1.76 1.78 1.78 1.81 1.79
0.31 0.46 0.63 1.00 0.97 0.86 1.05 1.21 0.91 0.75 0.76 0.79 0.86 0.99 1.21 1.33 1.40 1.45 1.40 1.38 1.25 1.16 1.07 1.00 0.88 0.74 0.69 0.73 0.75 0.77 0.69 0.64 0.68 0.69 0.70 0.61 0.58 0.62 0.72 0.85 1.05 1.16 1.25 1.30 1.38 1.46 1.51 1.54 1.58

GEFSSGP_prec_meanprecacc_180.txt.gz
Total_Precipitation_Accumulation
1.20 1.32 1.91 2.56 2.87 2.30 1.86 1.43 1.09 1.01 0.96 0.69 0.55 0.56 0.79 1.07 1.38 1.68 1.51 1.27 0.94 0.80 0.87 1.26 1.61 1.45 1.31 1.19 1.18 1.24 1.25 1.34 1.20 1.11 0.95 0.79 0.68 0.66 0.66 0.57 0.53 0.57 0.51 0.47 0.50 0.60 0.62 0.66 0.67
1.09 1.91 2.67 3.27 2.76 1.95 1.78 1.45 1.24 1.00 0.71 0.55 0.43 0.44 0.60 0.59 0.55 0.86 1.49 1.48 0.92 0.74 0.79 1.11 1.63 1.45 1.39 1.34 1.33 1.29 1.30 1.38 1.21 1.08 0.92 0.79 0.73 0.74 0.75 0.83 0.86 0.73 0.55 0.50 0.50 0.61 0.64 0.62 0.67
1.34 2.52 3.48 3.23 2.20 1.78 1.86 1.48 1.11 0.77 0.53 0.51 0.49 0.44 0.59 0.74 0.72 1.12 1.55 1.22 0.89 0.74 0.84 1.27 1.64 1.43 1.33 1.34 1.41 1.34 1.39 1.37 1.22 1.05 0.85 0.78 0.80 0.90 0.99 1.03 0.92 0.72 0.59 0.55 0.57 0.63 0.67 0.62 0.59
1.76 2.89 3.01 2.39 2.03 1.68 1.49 1.24 0.90 0.83 0.63 0.44 0.44 0.53 0.53 0.73 0.80 1.06 1.10 0.94 0.91 0.86 0.82 1.21 1.55 1.41 1.30 1.32 1.34 1.29 1.29 1.32 1.27 1.05 0.85 0.81 0.81 0.83 0.89 0.97 0.91 0.73 0.62 0.57 0.63 0.68 0.69 0.66 0.62
2.22 2.71 2.60 2.18 1.96 1.59 1.19 1.00 0.84 0.85 0.77 0.52 0.42 0.65 0.81 1.00 1.06 1.07 1.05 1.04 0.89 0.85 0.80 1.01 1.34 1.25 1.16 1.21 1.30 1.32 1.33 1.31 1.24 1.02 0.91 0.90 0.86 0.80 0.86 0.87 0.81 0.67 0.60 0.60 0.66 0.70 0.74 0.69 0.66
2.49 2.42 2.53 2.42 2.19 1.76 1.38 1.07 0.86 0.77 0.69 0.54 0.52 0.70 1.00 1.38 1.43 1.33 1.06 1.06 1.02 0.91 0.81 0.84 1.14 1.15 1.09 1.10 1.18 1.23 1.25 1.26 1.20 0.96 0.87 0.85 0.84 0.81 0.79 0.81 0.79 0.70 0.70 0.71 0.69 0.68 0.72 0.75 0.71
2.42 2.27 2.20 2.05 2.23 2.23 1.67 1.07 0.99 0.80 0.75 0.63 0.53 0.79 1.04 1.48 1.35 1.34 1.21 1.12 1.19 1.00 0.88 0.83 0.96 0.99 1.13 1.22 1.19 1.13 1.13 1.16 1.17 1.01 0.91 0.87 0.78 0.70 0.69 0.70 0.71 0.73 0.80 0.77 0.70 0.66 0.66 0.70 0.72
1.99 1.90 1.70 1.79 2.09 2.21 1.49 0.89 0.73 0.75 0.71 0.46 0.49 0.75 1.01 1.22 1.19 1.33 1.33 1.21 1.13 1.02 0.92 0.81 0.89 0.90 0.85 0.95 1.15 1.22 1.24 1.24 1.24 1.07 0.94 0.88 0.74 0.66 0.67 0.60 0.64 0.71 0.84 0.91 0.83 0.76 0.72 0.72 0.77
1.87 1.95 1.91 2.06 1.96 1.78 1.20 0.97 0.81 0.69 0.64 0.52 0.48 0.56 0.85 0.93 1.03 1.24 1.31 1.24 1.09 0.93 0.83 0.76 0.79 0.89 0.93 0.89 1.00 1.32 1.35 1.35 1.28 1.11 1.00 0.88 0.69 0.60 0.63 0.59 0.76 0.79 0.84 0.91 0.93 0.94 0.89 0.83 0.77
1.90 2.03 2.02 1.76 1.34 1.23 1.03 0.93 0.85 0.73 0.74 0.65 0.57 0.63 0.87 1.01 1.03 1.10 1.09 1.01 0.94 0.91 0.80 0.69 0.68 0.70 0.77 0.83 0.96 1.13 1.13 1.13 1.08 1.21 1.10 0.96 0.90 0.79 0.51 0.58 0.81 0.98 1.02 0.97 0.93 1.02 0.91 0.72 0.57
1.49 1.58 1.35 1.35 1.03 0.88 0.89 0.83 0.75 0.83 0.89 0.61 0.61 0.72 0.90 1.03 1.02 1.05 1.02 0.88 0.83 0.83 0.77 0.64 0.56 0.52 0.55 0.69 0.86 0.95 1.09 1.20 1.13 1.07 1.05 1.02 0.90 0.72 0.59 0.65 0.68 0.73 0.80 0.74 0.77 0.76 0.60 0.53 0.55
1.28 1.14 0.96 1.05 0.87 0.86 0.87 0.73 0.67 0.72 0.77 0.56 0.54 0.65 0.85 0.93 0.96 1.00 0.92 0.84 0.73 0.71 0.73 0.66 0.49 0.43 0.41 0.48 0.57 0.68 0.82 0.95 0.98 0.82 0.78 0.86 0.88 0.77 0.64 0.65 0.65 0.64 0.69 0.78 0.82 0.80 0.69 0.65 0.64
1.41 1.17 0.98 0.94 0.89 0.81 0.77 0.73 0.65 0.64 0.61 0.59 0.62 0.75 0.82 0.91 0.97 1.02 0.95 0.79 0.69 0.68 0.70 0.64 0.52 0.48 0.41 0.43 0.44 0.45 0.64 0.81 0.91 0.93 0.80 0.78 0.79 0.78 0.71 0.60 0.63 0.58 0.62 0.69 0.73 0.76 0.76 0.81 0.78
1.21 1.08 1.04 1.02 0.91 0.74 0.76 0.75 0.64 0.73 0.66 0.66 0.64 0.70 0.79 0.88 0.87 0.78 0.76 0.67 0.56 0.55 0.65 0.64 0.62 0.61 0.52 0.43 0.43 0.44 0.52 0.64 0.72 0.88 0.89 0.83 0.75 0.71 0.74 0.70 0.71 0.72 0.70 0.70 0.70 0.69 0.81 0.85 0.85
0.92 1.08 1.10 1.01 0.90 0.81 0.77 0.90 0.76 0.80 0.76 0.78 0.71 0.66 0.73 0.76 0.72 0.64 0.56 0.52 0.51 0.50 0.53 0.53 0.56 0.64 0.63 0.59 0.55 0.53 0.61 0.64 0.70 0.77 0.77 0.84 0.75 0.68 0.74 0.77 0.78 0.80 0.80 0.79 0.81 0.82 0.89 0.87 0.90
1.00 1.24 1.42 1.13 0.98 0.96 0.98 1.07 0.89 0.92 0.86 0.83 0.76 0.73 0.68 0.70 0.66 0.62 0.55 0.46 0.46 0.45 0.45 0.50 0.48 0.57 0.67 0.72 0.73 0.75 0.76 0.79 0.85 0.82 0.78 0.78 0.73 0.71 0.80 0.82 0.86 0.92 0.84 0.81 0.88 0.94 1.00 0.98 1.01
1.26 1.24 1.22 1.15 0.94 0.93 0.99 0.99 0.88 0.98 0.91 0.79 0.70 0.66 0.58 0.60 0.61 0.56 0.52 0.43 0.40 0.41 0.44 0.49 0.51 0.58 0.65 0.71 0.81 0.89 0.95 1.02 1.14 1.10 1.06 1.00 0.88 0.89 0.96 1.02 1.04 1.06 1.08 1.01 0.91 0.94 1.01 1.12 1.15
1.21 0.91 0.83 0.87 0.87 0.82 0.88 0.82 0.81 0.92 0.82 0.73 0.63 0.55 0.48 0.49 0.53 0.52 0.51 0.45 0.43 0.41 0.44 0.50 0.58 0.66 0.76 0.91 1.11 1.31 1.39 1.56 1.76 1.70 1.56 1.37 1.20 1.17 1.28 1.26 1.21 1.27 1.37 1.39 1.19 1.24 1.19 1.16 1.24
0.76 0.68 0.68 0.64 0.62 0.68 0.67 0.68 0.71 0.71 0.68 0.60 0.50 0.45 0.42 0.37 0.42 0.44 0.45 0.43 0.36 0.33 0.38 0.44 0.50 0.60 0.73 0.94 1.23 1.64 1.85 1.99 2.00 2.02 1.91 1.70 1.49 1.50 1.67 1.64 1.62 1.63 1.62 1.58 1.53 1.67 1.60 1.35 1.27
0.63 0.65 0.64 0.61 0.56 0.56 0.52 0.51 0.54 0.54 0.46 0.42 0.39 0.35 0.35 0.33 0.36 0.33 0.33 0.33 0.28 0.24 0.24 0.34 0.41 0.51 0.65 0.94 1.24 1.57 1.91 1.99 2.00 2.02 1.98 1.85 1.72 1.73 1.77 1.98 2.08 2.06 2.16 2.13 1.95 2.09 2.09 1.72 1.49
0.58 0.63 0.61 0.62 0.61 0.55 0.48 0.48 0.52 0.47 0.37 0.32 0.31 0.31 0.32 0.29 0.31 0.30 0.29 0.27 0.25 0.21 0.19 0.25 0.31 0.45 0.75 1.09 1.41 1.60 1.88 1.98 2.03 1.99 2.01 2.03 1.98 1.89 1.90 2.02 2.19 2.21 2.28 2.37 2.44 2.39 2.48 2.26 1.88
0.61 0.44 0.40 0.43 0.56 0.61 0.48 0.55 0.49 0.42 0.43 0.37 0.33 0.33 0.33 0.33 0.29 0.28 0.30 0.27 0.21 0.18 0.17 0.20 0.27 0.47 0.81 1.15 1.41 1.65 2.00 2.10 2.06 2.09 2.08 2.09 2.11 2.07 2.15 2.17 2.28 2.31 2.33 2.42 2.52 2.49 2.63 2.67 2.28
0.46 0.36 0.34 0.37 0.46 0.49 0.36 0.38 0.42 0.40 0.45 0.46 0.39 0.39 0.36 0.32 0.27 0.25 0.25 0.24 0.22 0.20 0.20 0.24 0.40 0.59 0.85 1.05 1.31 1.67 1.93 2.05 2.18 2.11 2.09 2.10 2.16 2.18 2.22 2.28 2.45 2.44 2.42 2.39 2.60 2.65 2.74 2.66 2.57
0.32 0.37 0.40 0.39 0.43 0.45 0.25 0.31 0.42 0.38 0.35 0.36 0.37 0.35 0.32 0.29 0.27 0.27 0.26 0.25 0.26 0.27 0.31 0.38 0.53 0.68 0.91 1.09 1.29 1.49 1.75 1.88 2.01 2.11 2.05 2.05 2.12 2.22 2.12 2.03 2.17 2.24 2.27 2.26 2.45 2.62 2.75 2.73 2.76
0.30 0.49 0.66 0.62 0.61 0.49 0.25 0.33 0.46 0.34 0.27 0.28 0.30 0.31 0.29 0.32 0.33 0.37 0.38 0.42 0.48 0.51 0.53 0.61 0.70 0.81 0.93 1.03 1.14 1.23 1.40 1.55 1.58 1.75 1.84 1.97 1.98 2.05 2.09 1.97 1.96 1.99 1.94 1.99 2.11 2.17 2.24 2.39 2.54
0.26 0.39 0.62 0.64 0.54 0.45 0.36 0.51 0.53 0.35 0.29 0.29 0.29 0.34 0.36 0.43 0.49 0.59 0.66 0.75 0.82 0.81 0.80 0.87 0.92 0.90 0.89 0.94 1.01 1.05 1.13 1.22 1.28 1.31 1.34 1.52 1.69 1.73 1.82 1.81 1.76 1.80 1.84 1.85 1.93 1.94 1.95 1.98 2.05
0.23 0.29 0.35 0.44 0.36 0.37 0.38 0.53 0.51 0.38 0.37 0.36 0.37 0.42 0.51 0.68 0.78 0.87 0.96 0.98 0.98 0.95 0.91 0.92 0.95 0.92 0.90 0.90 0.90 0.86 0.86 0.93 1.04 1.06 1.12 1.18 1.27 1.28 1.35 1.45 1.52 1.61 1.66 1.72 1.86 1.93 1.92 1.88 1.85
0.20 0.30 0.40 0.60 0.67 0.59 0.50 0.61 0.63 0.53 0.45 0.42 0.46 0.56 0.74 1.00 1.13 1.25 1.34 1.24 1.15 1.15 1.20 1.09 0.99 0.91 0.87 0.87 0.87 0.80 0.77 0.83 0.87 0.87 0.92 0.91 0.92 0.94 1.00 1.11 1.28 1.50 1.63 1.67 1.74 1.79 1.87 1.91 1.86
0.21 0.32 0.44 0.65 0.72 0.87 0.94 1.01 0.80 0.67 0.64 0.71 0.82 0.90 1.11 1.38 1.53 1.63 1.63 1.53 1.32 1.19 1.18 1.12 1.00 0.87 0.76 0.75 0.80 0.80 0.75 0.77 0.82 0.81 0.76 0.69 0.72 0.79 0.91 0.95 1.09 1.25 1.43 1.61 1.76 1.78 1.78 1.81 1.80
0.32 0.47 0.64 1.02 0.99 0.88 1.06 1.21 0.92 0.75 0.76 0.79 0.86 0.99 1.21 1.34 1.40 1.45 1.40 1.38 1.27 1.17 1.08 1.04 0.92 0.77 0.71 0.74 0.77 0.78 0.70 0.65 0.69 0.71 0.73 0.63 0.58 0.62 0.72 0.85 1.05 1.16 1.25 1.30 1.38 1.46 1.51 1.54 1.58

GEFSSGP_prec_meanprecacc_186.txt.gz
Total_Precipitation_Accumulation
1.22 1.33 1.93 2.62 2.96 2.41 1.99 1.51 1.14 1.06 1.01 0.73 0.56 0.58 0.85 1.17 1.53 1.83 1.65 1.41 1.03 0.87 0.93 1.35 1.72 1.57 1.41 1.29 1.28 1.34 1.32 1.38 1.24 1.16 0.99 0.84 0.71 0.69 0.68 0.59 0.55 0.58 0.53 0.49 0.53 0.63 0.65 0.69 0.71
1.11 1.93 2.69 3.33 2.86 2.08 1.91 1.51 1.28 1.03 0.73 0.57 0.44 0.45 0.64 0.66 0.60 0.93 1.60 1.62 1.05 0.83 0.86 1.21 1.78 1.59 1.50 1.45 1.47 1.38 1.37 1.45 1.26 1.12 0.97 0.84 0.78 0.77 0.78 0.86 0.89 0.75 0.57 0.52 0.52 0.64 0.67 0.65 0.69
1.35 2.53 3.50 3.30 2.29 1.90 1.98 1.56 1.15 0.79 0.55 0.53 0.51 0.46 0.62 0.79 0.76 1.18 1.65 1.34 1.01 0.83 0.93 1.38 1.79 1.56 1.44 1.45 1.51 1.42 1.45 1.43 1.28 1.10 0.90 0.83 0.85 0.93 1.03 1.07 0.96 0.75 0.61 0.57 0.58 0.65 0.69 0.65 0.62
1.78 2.90 3.04 2.47 2.09 1.74 1.55 1.32 0.96 0.87 0.65 0.46 0.46 0.56 0.56 0.79 0.86 1.13 1.19 1.04 1.01 0.96 0.94 1.36 1.75 1.59 1.44 1.41 1.42 1.39 1.37 1.38 1.31 1.09 0.90 0.85 0.84 0.85 0.93 1.01 0.94 0.77 0.64 0.58 0.64 0.70 0.72 0.68 0.65
2.23 2.74 2.66 2.25 1.99 1.63 1.23 1.06 0.90 0.90 0.80 0.55 0.44 0.68 0.85 1.09 1.12 1.15 1.13 1.11 0.97 0.94 0.94 1.22 1.64 1.51 1.30 1.31 1.40 1.45 1.42 1.37 1.29 1.07 0.96 0.94 0.90 0.84 0.90 0.91 0.85 0.70 0.61 0.61 0.67 0.71 0.76 0.71 0.68
2.51 2.46 2.62 2.49 2.24 1.80 1.40 1.12 0.91 0.82 0.72 0.55 0.54 0.73 1.05 1.46 1.52 1.43 1.16 1.13 1.08 0.98 0.88 0.97 1.35 1.43 1.28 1.24 1.28 1.33 1.36 1.35 1.27 1.03 0.93 0.90 0.91 0.88 0.85 0.85 0.81 0.71 0.71 0.72 0.70 0.69 0.74 0.77 0.73
2.46 2.34 2.29 2.12 2.29 2.29 1.71 1.09 1.03 0.85 0.78 0.64 0.54 0.83 1.10 1.58 1.48 1.48 1.32 1.19 1.26 1.06 0.95 0.95 1.14 1.25 1.40 1.41 1.34 1.27 1.28 1.29 1.29 1.09 0.96 0.91 0.82 0.74 0.72 0.72 0.72 0.74 0.82 0.78 0.71 0.67 0.67 0.71 0.73
2.02 1.94 1.77 1.87 2.17 2.28 1.53 0.90 0.76 0.79 0.73 0.47 0.50 0.79 1.07 1.33 1.34 1.48 1.43 1.28 1.22 1.07 0.99 0.96 1.05 1.07 1.06 1.13 1.31 1.36 1.38 1.37 1.36 1.15 1.00 0.93 0.77 0.68 0.69 0.63 0.66 0.73 0.86 0.93 0.84 0.77 0.74 0.74 0.78
1.89 2.01 1.99 2.15 2.04 1.87 1.24 0.99 0.82 0.70 0.67 0.55 0.50 0.58 0.89 1.00 1.13 1.38 1.42 1.36 1.18 0.98 0.89 0.85 0.89 1.00 1.05 1.01 1.13 1.45 1.47 1.49 1.40 1.19 1.06 0.93 0.73 0.64 0.66 0.62 0.79 0.82 0.87 0.94 0.95 0.95 0.92 0.85 0.78
1.94 2.11 2.10 1.82 1.37 1.27 1.09 0.96 0.86 0.75 0.79 0.70 0.61 0.67 0.94 1.08 1.11 1.22 1.20 1.10 1.01 0.96 0.85 0.73 0.71 0.79 0.89 0.95 1.08 1.24 1.21 1.20 1.15 1.27 1.15 1.00 0.94 0.83 0.54 0.61 0.84 1.01 1.04 0.99 0.95 1.05 0.93 0.73 0.58
1.51 1.64 1.42 1.38 1.05 0.91 0.93 0.85 0.76 0.87 0.96 0.69 0.67 0.75 0.95 1.12 1.12 1.16 1.10 0.95 0.89 0.87 0.81 0.67 0.59 0.55 0.60 0.75 0.91 0.98 1.11 1.23 1.16 1.10 1.09 1.06 0.93 0.74 0.61 0.67 0.69 0.75 0.82 0.76 0.79 0.78 0.63 0.55 0.58
1.30 1.18 0.99 1.08 0.89 0.89 0.90 0.76 0.70 0.76 0.83 0.59 0.57 0.69 0.89 1.02 1.07 1.08 0.98 0.88 0.76 0.74 0.76 0.68 0.51 0.44 0.42 0.49 0.58 0.69 0.83 0.99 1.03 0.87 0.81 0.88 0.89 0.78 0.65 0.66 0.66 0.67 0.72 0.81 0.84 0.83 0.73 0.69 0.66
1.45 1.21 1.00 0.95 0.91 0.84 0.80 0.75 0.67 0.66 0.63 0.61 0.65 0.78 0.85 0.98 1.06 1.14 1.02 0.82 0.71 0.69 0.72 0.68 0.54 0.48 0.42 0.43 0.44 0.45 0.64 0.82 0.95 0.96 0.82 0.78 0.80 0.79 0.72 0.62 0.64 0.60 0.64 0.70 0.75 0.77 0.79 0.85 0.82
1.24 1.11 1.05 1.03 0.92 0.76 0.77 0.76 0.66 0.75 0.67 0.67 0.67 0.73 0.82 0.91 0.91 0.84 0.82 0.70 0.58 0.56 0.66 0.67 0.64 0.62 0.53 0.43 0.43 0.44 0.52 0.64 0.73 0.88 0.89 0.83 0.76 0.72 0.75 0.71 0.73 0.73 0.71 0.71 0.71 0.70 0.83 0.88 0.87
0.94 1.11 1.13 1.03 0.91 0.82 0.78 0.91 0.78 0.81 0.77 0.79 0.74 0.70 0.76 0.78 0.76 0.67 0.59 0.55 0.52 0.51 0.54 0.54 0.58 0.66 0.65 0.60 0.55 0.53 0.61 0.64 0.70 0.77 0.77 0.84 0.75 0.69 0.74 0.77 0.79 0.80 0.81 0.79 0.81 0.82 0.89 0.88 0.93
1.03 1.28 1.47 1.17 1.00 0.97 1.01 1.12 0.93 0.94 0.87 0.85 0.78 0.76 0.72 0.73 0.71 0.66 0.59 0.48 0.47 0.45 0.45 0.50 0.49 0.58 0.68 0.73 0.74 0.76 0.77 0.79 0.85 0.82 0.78 0.78 0.73 0.71 0.80 0.82 0.87 0.92 0.84 0.81 0.89 0.95 1.01 1.00 1.05
1.31 1.31 1.27 1.18 0.96 0.94 1.02 1.04 0.93 1.01 0.93 0.80 0.72 0.68 0.61 0.63 0.64 0.59 0.55 0.46 0.42 0.42 0.44 0.50 0.52 0.59 0.67 0.72 0.81 0.90 0.95 1.02 1.15 1.10 1.06 1.00 0.88 0.89 0.97 1.02 1.04 1.06 1.08 1.01 0.91 0.95 1.04 1.15 1.20
1.26 0.97 0.88 0.90 0.89 0.84 0.90 0.86 0.86 0.96 0.84 0.75 0.65 0.58 0.51 0.53 0.55 0.53 0.53 0.49 0.46 0.43 0.45 0.50 0.59 0.68 0.77 0.91 1.12 1.32 1.40 1.56 1.76 1.70 1.56 1.37 1.20 1.17 1.28 1.26 1.21 1.27 1.38 1.41 1.21 1.27 1.22 1.19 1.28
0.77 0.71 0.71 0.65 0.64 0.69 0.69 0.71 0.75 0.73 0.70 0.63 0.52 0.48 0.45 0.41 0.45 0.46 0.47 0.45 0.40 0.36 0.39 0.44 0.51 0.61 0.74 0.94 1.24 1.64 1.86 1.99 2.00 2.02 1.91 1.71 1.49 1.50 1.67 1.64 1.62 1.63 1.63 1.60 1.55 1.71 1.64 1.38 1.30
0.65 0.69 0.68 0.62 0.57 0.57 0.53 0.54 0.58 0.57 0.48 0.44 0.41 0.38 0.38 0.36 0.39 0.35 0.35 0.34 0.31 0.26 0.25 0.35 0.42 0.52 0.67 0.95 1.25 1.57 1.92 1.99 2.01 2.02 1.98 1.85 1.72 1.73 1.77 1.98 2.09 2.06 2.17 2.15 1.98 2.13 2.13 1.76 1.53
0.61 0.68 0.66 0.65 0.62 0.56 0.50 0.52 0.56 0.51 0.39 0.33 0.32 0.33 0.34 0.30 0.33 0.31 0.31 0.30 0.27 0.23 0.19 0.27 0.32 0.47 0.76 1.10 1.41 1.60 1.88 1.98 2.03 2.00 2.01 2.03 1.98 1.89 1.90 2.02 2.20 2.22 2.29 2.39 2.47 2.42 2.52 2.31 1.92
0.65 0.46 0.41 0.45 0.61 0.65 0.51 0.63 0.55 0.45 0.45 0.39 0.35 0.34 0.34 0.34 0.30 0.30 0.33 0.30 0.24 0.20 0.18 0.22 0.29 0.50 0.82 1.15 1.41 1.65 2.00 2.10 2.06 2.09 2.08 2.09 2.11 2.07 2.15 2.17 2.28 2.31 2.33 2.43 2.54 2.51 2.65 2.72 2.33
0.48 0.38 0.36 0.39 0.51 0.56 0.41 0.45 0.50 0.44 0.49 0.48 0.41 0.40 0.37 0.33 0.28 0.26 0.27 0.27 0.25 0.24 0.25 0.29 0.42 0.61 0.86 1.06 1.31 1.68 1.94 2.05 2.19 2.12 2.09 2.10 2.17 2.18 2.22 2.29 2.45 2.45 2.43 2.40 2.61 2.66 2.76 2.69 2.61
0.33 0.39 0.43 0.42 0.48 0.53 0.30 0.36 0.50 0.44 0.38 0.38 0.38 0.37 0.33 0.30 0.28 0.28 0.28 0.28 0.29 0.30 0.35 0.45 0.60 0.72 0.92 1.10 1.30 1.49 1.75 1.88 2.02 2.11 2.06 2.05 2.12 2.22 2.12 2.04 2.18 2.24 2.29 2.27 2.45 2.63 2.77 2.75 2.78
0.32 0.55 0.74 0.70 0.70 0.56 0.26 0.35 0.50 0.36 0.28 0.29 0.31 0.33 0.30 0.32 0.33 0.38 0.39 0.44 0.51 0.54 0.57 0.65 0.74 0.84 0.97 1.07 1.16 1.23 1.40 1.55 1.59 1.75 1.84 1.97 1.98 2.05 2.09 1.97 1.96 1.99 1.95 1.99 2.11 2.18 2.26 2.40 2.56
0.29 0.44 0.70 0.72 0.62 0.51 0.37 0.54 0.55 0.36 0.30 0.30 0.31 0.36 0.37 0.44 0.49 0.59 0.66 0.76 0.83 0.83 0.82 0.88 0.93 0.92 0.93 0.99 1.04 1.06 1.14 1.22 1.29 1.31 1.35 1.52 1.69 1.73 1.82 1.82 1.76 1.80 1.84 1.85 1.93 1.95 1.96 1.99 2.07
0.25 0.31 0.37 0.48 0.41 0.43 0.42 0.56 0.53 0.39 0.38 0.37 0.39 0.44 0.52 0.69 0.78 0.87 0.96 0.98 0.98 0.97 0.92 0.93 0.96 0.94 0.92 0.94 0.94 0.88 0.87 0.93 1.04 1.06 1.12 1.18 1.27 1.29 1.35 1.45 1.52 1.61 1.66 1.72 1.87 1.94 1.93 1.89 1.86
0.22 0.32 0.42 0.65 0.75 0.66 0.55 0.66 0.68 0.55 0.46 0.43 0.47 0.58 0.75 1.00 1.13 1.26 1.34 1.25 1.16 1.17 1.20 1.09 0.99 0.93 0.89 0.89 0.89 0.82 0.79 0.84 0.87 0.87 0.93 0.92 0.93 0.95 1.01 1.12 1.28 1.51 1.63 1.67 1.75 1.80 1.88 1.92 1.88
0.23 0.33 0.46 0.70 0.77 0.94 1.01 1.07 0.81 0.67 0.64 0.71 0.82 0.91 1.12 1.38 1.54 1.63 1.64 1.54 1.34 1.20 1.19 1.13 1.00 0.88 0.77 0.76 0.82 0.81 0.76 0.78 0.83 0.82 0.77 0.70 0.73 0.80 0.92 0.96 1.10 1.25 1.44 1.62 1.77 1.78 1.78 1.83 1.82
0.32 0.47 0.65 1.06 1.04 0.92 1.12 1.26 0.92 0.75 0.76 0.79 0.87 1.00 1.22 1.34 1.41 1.46 1.41 1.39 1.28 1.18 1.10 1.05 0.93 0.78 0.71 0.75 0.78 0.80 0.72 0.67 0.71 0.72 0.75 0.64 0.60 0.63 0.73 0.86 1.06 1.17 1.25 1.30 1.39 1.47 1.51 1.55 1.61